Location: La B�doule
(43.2468°N, 5.5934°E)
Time: 19:17:33
(UTC+00:00)

STARLINK-1365 - Visible Passes

Search period start: 25 September 2020 00:00
Search period end: 05 October 2020 00:00
Orbit: 549 x 550 km, 53.0° (Epoch: 25 September)

Date Brightness Start Highest point End Pass type
(mag) Time Alt. Az. Time Alt. Az. Time Alt. Az.
25 Sep 5.2 04:24:47 10° SSW 04:28:29 32° SE 04:32:11 10° ENE visible
26 Sep 4.6 04:18:58 10° SSW 04:22:53 43° SE 04:26:50 10° ENE visible
27 Sep 4.1 04:14:16 17° SW 04:17:19 59° SE 04:21:25 10° ENE visible
28 Sep 6.5 02:33:48 11° ESE 02:33:48 11° ESE 02:34:33 10° ESE visible
28 Sep 3.6 04:09:28 25° SW 04:11:48 78° SE 04:15:57 10° ENE visible
29 Sep 6.4 02:28:55 14° E 02:28:55 14° E 02:29:53 10° E visible
29 Sep 3.5 04:04:35 34° WSW 04:06:18 81° NW 04:10:28 10° NE visible
30 Sep 6.5 02:23:57 14° E 02:23:57 14° E 02:24:51 10° ENE visible
30 Sep 3.7 03:59:37 41° W 04:00:51 63° NNW 04:04:58 10° NE visible
01 Oct 6.6 02:18:56 14° ENE 02:18:56 14° ENE 02:19:37 10° ENE visible
01 Oct 4.0 03:54:36 43° WNW 03:55:24 50° NNW 03:59:27 10° NE visible
02 Oct 6.7 02:13:51 13° ENE 02:13:51 13° ENE 02:14:19 10° ENE visible
02 Oct 4.2 03:49:30 39° NW 03:50:00 41° NNW 03:53:57 10° NE visible
03 Oct 6.9 02:08:43 11° ENE 02:08:43 11° ENE 02:08:56 10° ENE visible
03 Oct 4.6 03:44:23 34° NNW 03:44:37 34° NNW 03:48:26 10° NE visible
04 Oct 4.9 03:39:13 30° NNW 03:39:16 30° NNW 03:42:57 10° NE visible
